User: anonymous   Login
Location: Newark
(7.0858°N, 171.3717°E)
Time: 23:07:15
(UTC+00:00)
Language:

Transit 2A Rocket - Orbit

View from above orbital plane
View from above orbital plane
View from above satellite
View from above satellite

Ground track
Ground track

The orbit data is extracted from the following two-line orbital elements,

1    47U 60007C   20340.24002152 +.00000072 +00000-0 +41072-4 0  9996
2    47 066.6671 058.3096 0227799 180.2202 179.8843 14.42119238159300
Epoch (UTC): 05 December 2020 05:45:37
Eccentricity: 0.0227799
inclination: 66.6671°
perigee height: 589 km
apogee height: 914 km
right ascension of ascending node: 58.3096°
argument of perigee: 180.2202°
revolutions per day: 14.42119238
mean anomaly at epoch: 179.8843°
orbit number at epoch: 15930

The dashed part of the orbit path shows where the satellite is in the earth's shadow,  

DLR